GEFSNGP_500_meanwind_000.txt.gz
Wind_Speed
48 51 53 56 60 65 68 69 69 70 74 72 69 64 62 60 54 53 54 60 70 74 66 54 45 41 39 35 33 30 34 38 41 39 42 40 41 38 39 44 43 39 43 41
52 54 57 60 65 70 71 72 70 71 69 65 60 56 53 50 51 53 57 65 73 71 57 41 34 29 26 26 28 26 27 30 33 36 36 35 39 40 40 40 34 39 44 42
55 58 62 66 70 74 74 71 68 68 65 62 54 48 47 48 49 53 59 66 69 59 35 24 20 18 18 22 28 22 18 21 26 27 30 32 34 36 40 36 35 37 37 35
60 63 67 70 76 76 74 67 60 59 57 54 51 45 44 45 47 51 57 62 59 43 24 18 14 16 18 21 22 18 12 12 19 18 17 19 20 23 26 29 32 30 31 33
64 68 72 75 78 75 72 64 57 55 52 49 42 37 38 40 45 48 52 54 47 35 22 15 13 17 17 17 18 18 11 9 13 13 14 16 20 23 24 27 30 31 31 30
68 73 76 75 76 71 65 58 52 50 49 48 39 33 34 38 43 43 44 45 37 28 20 15 15 15 16 15 17 17 14 10 12 16 21 26 27 26 27 29 32 33 30 27
71 76 76 74 70 65 58 54 48 46 47 47 39 33 32 36 39 38 36 37 33 25 20 17 16 17 16 15 15 16 17 16 17 19 22 25 27 28 29 31 32 32 29 27
74 76 72 68 61 54 50 47 46 46 46 42 35 31 31 34 35 35 35 33 31 27 22 21 20 18 16 17 18 19 19 21 25 27 28 28 29 30 31 32 33 32 31 30
73 69 65 57 52 48 46 47 48 46 42 36 30 28 31 33 34 36 35 33 31 28 26 25 23 21 21 21 23 24 25 26 28 32 34 33 33 33 34 34 34 35 36 37
67 63 59 52 47 45 47 48 47 42 36 31 27 29 30 30 32 35 36 35 33 32 30 28 27 25 25 26 27 28 30 33 35 36 38 40 40 40 39 38 38 39 41 43
62 58 50 46 45 46 47 45 41 37 33 30 30 30 29 30 33 36 36 36 36 35 35 34 32 30 28 28 29 31 34 37 39 41 43 43 44 46 46 45 46 47 47 47
57 53 48 45 43 46 45 42 38 33 31 31 30 31 31 32 34 35 37 38 38 37 38 37 36 34 33 32 32 34 35 36 38 41 42 44 45 46 48 49 50 50 51 52
50 46 45 42 42 46 43 39 36 33 33 33 33 33 33 33 35 37 40 41 40 39 39 38 37 36 35 34 34 34 36 37 38 39 40 42 44 47 49 50 51 52 52 53
44 42 41 40 43 45 39 35 35 34 35 35 35 35 35 36 38 40 42 42 42 42 42 40 37 35 35 35 35 35 36 37 39 40 42 43 45 46 48 49 51 52 53 54
41 43 43 42 43 41 33 33 36 36 35 36 37 37 38 39 41 42 43 44 44 42 40 39 37 37 37 38 37 38 38 39 40 42 43 45 46 48 49 51 53 55 57 58
40 42 43 43 41 35 30 33 37 37 35 36 37 39 40 41 43 44 44 45 43 41 39 38 39 39 39 40 41 42 43 44 45 47 48 49 51 52 54 56 57 59 61 62
41 43 43 42 38 33 30 33 36 37 36 37 39 41 43 45 45 45 45 44 41 40 40 41 42 43 44 45 47 49 50 52 53 55 56 58 59 60 62 63 65 66 68 69
42 43 42 40 37 33 30 33 37 39 39 40 42 44 45 46 46 45 44 43 43 44 44 45 48 51 54 55 57 59 61 62 63 64 65 66 67 68 69 70 71 72 73 74
41 41 41 40 36 32 31 34 38 40 42 43 45 46 46 45 45 44 44 45 47 49 52 55 57 60 62 64 65 66 66 66 66 67 67 67 68 69 69 69 70 71 72 72
39 40 40 38 34 31 32 35 39 41 43 45 47 47 46 46 46 47 48 51 53 57 61 64 65 66 66 65 63 61 59 58 57 56 56 56 55 55 55 55 56 56 56 57
39 39 38 34 30 29 33 37 40 42 45 47 48 48 47 48 48 50 53 58 62 65 66 66 63 58 54 51 47 45 43 41 40 39 38 37 36 35 34 34 35 35 36 37
37 33 30 27 26 30 34 38 40 44 47 48 47 47 48 49 53 58 61 63 63 60 56 50 45 42 39 37 36 36 34 33 32 30 29 28 27 27 26 26 26 26 26 26
25 23 23 24 27 31 36 39 42 45 46 46 46 47 49 53 58 60 59 55 48 42 38 36 36 36 37 37 36 35 34 33 32 31 31 31 30 30 30 30 29 28 26 25
22 22 23 26 30 34 37 40 43 44 43 43 45 49 54 57 57 52 45 38 35 35 37 39 40 40 40 40 39 39 38 37 36 35 36 36 37 37 36 36 35 33 30 27
22 23 25 28 32 35 38 40 41 41 41 44 48 52 53 50 42 35 32 35 38 41 43 43 44 44 45 45 45 44 43 42 41 40 39 39 39 39 40 40 39 37 35 32
22 24 28 31 33 36 37 38 38 39 42 46 50 49 42 33 30 32 35 38 40 41 43 44 45 46 46 47 48 49 48 47 46 45 43 42 40 40 40 40 39 37 35 34
23 26 29 31 34 35 36 36 38 40 44 47 45 36 28 27 30 33 36 38 41 42 44 46 47 49 50 51 52 52 52 52 51 49 47 45 44 43 40 37 36 37 34 30

GEFSNGP_500_meanwind_006.txt.gz
Wind_Speed
47 51 54 58 60 62 68 73 77 79 78 72 68 64 61 60 59 54 49 44 40 39 39 39 42 43 41 40 39 36 34 35 36 34 27 22 20 20 21 23 26 29 29 29
51 55 59 63 65 69 74 77 76 76 71 63 60 58 57 58 57 52 46 41 38 36 36 38 40 41 39 37 37 34 33 34 36 33 23 15 11 11 14 17 20 24 26 27
56 59 62 65 71 73 77 73 73 71 64 60 58 56 56 57 53 48 41 37 35 33 34 37 38 39 38 37 36 33 31 30 32 30 22 14 9 9 12 16 19 22 25 27
60 64 63 72 75 75 75 67 67 63 58 54 54 51 51 50 46 41 37 34 32 31 33 35 37 38 38 37 35 33 30 27 27 26 21 14 11 10 12 15 18 21 22 24
63 66 67 74 75 75 74 63 62 56 51 50 48 44 43 43 42 40 36 34 32 33 34 36 37 38 38 37 35 33 30 28 26 24 20 16 13 12 13 14 17 19 22 24
65 68 71 76 76 74 69 58 55 50 50 49 46 45 43 42 41 39 36 34 34 35 36 37 39 40 39 38 36 34 32 30 28 26 23 20 17 15 15 16 18 20 21 23
68 70 71 76 74 70 61 58 52 49 49 46 45 45 44 42 41 40 38 36 36 37 38 39 41 42 41 39 37 35 33 32 31 30 28 25 23 22 21 22 23 24 26 29
69 70 71 74 70 64 55 49 48 48 47 44 43 43 42 40 40 39 39 39 39 40 41 42 44 44 44 42 40 38 36 34 33 32 32 31 30 29 29 29 30 31 32 33
69 70 72 69 63 56 49 48 47 46 43 40 42 43 41 40 40 41 42 43 43 44 45 46 47 46 45 44 42 39 37 35 34 34 34 34 34 35 35 36 37 38 38 39
71 74 71 67 62 53 46 46 47 46 42 40 41 42 42 41 42 44 45 46 47 47 48 48 48 47 46 45 43 40 37 35 34 34 34 35 36 37 38 39 41 42 43 44
72 75 73 66 58 50 44 45 45 45 42 40 41 43 43 44 45 46 47 49 50 51 51 50 49 48 47 46 44 42 40 38 36 36 36 36 38 39 40 41 43 44 46 47
73 75 72 63 54 47 44 44 44 44 42 40 40 43 45 47 48 49 51 52 54 54 54 52 51 50 50 49 47 45 43 42 41 41 40 41 41 42 43 44 45 46 47 48
74 75 67 58 51 47 44 43 43 43 42 40 41 44 47 49 52 53 55 56 57 57 56 55 54 53 53 52 52 51 50 49 48 48 47 46 47 47 48 49 50 50 51 51
75 72 63 56 51 47 44 42 41 41 40 40 41 45 49 52 55 57 58 59 58 58 58 58 58 58 58 59 59 59 58 58 58 57 57 57 56 56 56 56 56 57 57 57
72 66 59 53 50 46 42 39 39 39 39 40 44 48 52 55 57 58 58 58 59 60 61 63 63 62 61 60 59 58 58 57 57 57 58 59 61 62 63 64 65 65 65 65
66 58 52 49 46 42 38 36 35 37 39 43 47 51 55 57 57 57 59 61 63 64 62 60 56 53 51 48 47 45 45 44 43 43 43 44 46 48 51 55 59 63 66 68
61 53 46 41 38 36 34 33 34 37 41 46 51 54 56 56 57 60 63 63 60 56 51 48 45 44 43 42 41 40 39 38 37 36 35 35 34 34 35 36 38 42 46 51
55 47 40 36 34 34 33 35 38 42 46 51 54 54 54 56 59 60 57 51 47 44 42 42 43 43 44 44 44 43 42 40 39 38 37 36 34 33 31 30 29 29 30 31
50 42 37 34 33 34 36 39 42 46 50 53 53 53 55 58 57 50 43 39 38 39 40 42 44 46 47 48 48 47 46 44 43 41 40 39 37 35 33 31 30 29 28 27
45 38 34 32 33 35 38 42 45 49 51 52 52 54 56 52 44 37 34 34 36 38 41 44 46 48 49 49 49 49 48 47 45 43 42 40 39 37 35 33 32 31 31 30
41 35 31 31 33 36 40 44 47 49 50 50 52 53 48 38 31 30 31 34 37 40 43 46 49 51 52 52 52 52 51 50 48 47 45 43 42 39 37 35 34 33 32 32
37 32 30 31 33 37 41 45 47 48 48 50 52 46 34 28 27 28 30 33 37 40 44 47 49 52 54 55 55 55 54 53 52 51 50 48 46 43 40 37 35 33 31 30
33 31 30 32 35 39 42 45 46 47 48 50 45 33 24 23 25 27 29 33 36 40 43 46 49 52 56 58 59 59 58 58 57 56 54 52 50 47 42 37 33 30 28 26
31 29 30 33 36 40 42 44 45 45 47 45 34 23 20 21 23 25 29 32 36 39 42 45 49 53 57 59 61 62 64 64 62 60 57 55 52 49 44 39 34 29 25 23
29 29 31 34 37 40 41 42 43 44 44 36 23 17 18 19 22 26 29 31 34 37 41 44 48 52 55 59 63 66 66 65 63 61 59 57 54 50 46 42 37 31 27 23
29 30 32 35 37 39 40 40 41 42 37 25 16 14 16 18 22 25 28 31 34 37 40 44 47 50 54 58 63 65 65 64 62 62 62 62 59 55 50 46 42 37 32 27
29 30 33 35 36 37 37 39 40 38 29 17 13 13 15 18 21 24 27 31 34 37 40 43 46 49 54 57 60 62 63 64 64 65 65 66 65 62 56 51 47 43 39 35

GEFSNGP_500_meanwind_012.txt.gz
Wind_Speed
40 46 50 54 57 62 67 71 73 73 70 67 63 56 52 49 48 45 45 44 43 42 40 38 35 33 33 32 33 33 34 35 34 34 34 32 29 27 25 23 19 17 17 20
42 48 53 56 61 66 69 72 73 73 68 65 57 51 48 46 44 43 43 43 43 43 42 40 38 37 36 36 37 37 38 38 37 35 34 32 30 26 23 21 18 17 16 20
46 51 57 59 64 68 71 74 75 72 68 61 53 49 47 45 43 41 41 43 44 45 45 44 43 42 41 40 40 40 41 41 40 38 36 33 31 27 24 21 19 18 18 19
50 55 58 62 65 69 72 75 73 68 61 54 50 47 46 44 42 40 42 44 46 48 48 48 48 48 47 46 45 45 44 43 42 40 38 35 33 30 26 23 21 21 20 20
53 56 60 63 67 70 74 74 72 65 57 49 46 44 43 43 42 42 44 47 50 51 52 53 53 52 51 51 50 48 47 45 43 41 39 36 34 32 30 27 25 24 23 23
54 58 61 64 67 71 76 73 69 60 52 47 45 42 42 43 43 44 46 50 53 55 56 56 56 55 54 53 52 51 49 46 44 41 39 36 34 33 32 31 29 28 27 27
56 59 61 66 68 72 73 74 68 56 49 45 44 43 44 45 46 48 50 53 55 58 59 59 58 58 58 57 56 54 52 49 47 44 41 38 35 33 33 32 32 32 32 32
58 60 63 66 68 71 73 72 61 50 45 43 43 44 45 47 49 51 54 56 58 59 60 61 62 61 60 58 56 55 53 51 49 46 44 42 39 36 35 34 34 34 35 36
57 60 63 66 69 72 74 67 56 45 42 42 43 45 47 50 53 55 57 58 60 61 61 61 60 57 55 53 51 49 47 46 46 45 44 44 43 41 39 38 37 36 37 38
58 60 64 67 70 72 71 63 51 43 41 42 44 47 50 53 56 57 58 60 61 59 55 52 51 50 49 49 48 47 45 43 41 39 39 39 41 43 43 43 42 41 41 41
58 61 64 66 69 72 69 59 49 43 42 43 47 50 53 56 57 59 60 59 55 50 47 47 48 49 49 50 50 49 47 45 42 39 36 34 34 35 39 43 46 47 46 46
58 61 63 66 70 72 67 57 48 43 43 46 49 53 56 57 58 59 57 50 45 44 45 46 48 49 50 51 51 50 48 46 43 40 37 34 32 31 31 33 37 42 47 50
58 61 63 66 70 71 65 54 46 43 44 48 51 54 56 57 59 54 47 42 41 43 44 46 48 50 51 52 52 51 49 47 44 41 38 35 32 30 29 29 29 31 36 42
58 61 63 66 70 69 61 52 45 43 46 49 52 54 56 57 53 44 39 39 41 43 45 47 49 51 53 54 55 54 51 49 46 43 40 37 34 32 29 27 27 27 28 30
58 60 62 66 69 66 59 50 45 44 47 50 53 54 55 51 43 37 37 38 41 44 46 48 50 52 55 56 57 56 53 50 48 45 43 40 37 34 32 30 28 27 27 26
57 59 62 66 69 64 54 47 44 45 48 51 52 54 51 43 36 34 36 38 40 43 46 49 51 53 55 57 57 56 55 53 51 49 46 43 40 37 35 33 31 29 28 28
57 59 62 66 66 58 50 44 44 46 49 51 52 51 44 36 33 34 35 38 41 44 47 50 52 55 57 58 59 58 56 53 51 49 48 46 43 40 37 34 32 31 30 29
56 58 62 65 62 54 46 43 44 47 49 50 50 46 37 31 31 32 34 38 41 45 48 51 54 56 58 60 62 61 58 54 52 52 52 49 45 41 37 35 33 31 30 29
55 58 61 63 58 50 44 43 44 47 48 48 47 40 31 28 28 30 33 37 40 43 47 51 54 56 59 61 62 62 62 61 59 57 55 51 46 42 38 35 32 29 27 26
54 57 60 60 54 46 42 43 44 46 47 46 42 34 27 26 28 30 33 37 40 43 46 49 53 56 58 60 63 65 65 63 60 59 56 51 47 43 40 35 31 27 24 22
53 57 59 56 49 43 41 42 44 45 45 44 37 28 24 24 26 30 34 37 41 43 45 48 52 55 57 61 64 65 63 62 61 60 58 54 50 46 42 37 32 27 23 19
53 56 56 52 45 41 40 41 43 44 43 40 32 24 22 23 26 30 35 38 40 42 44 46 50 54 57 61 63 63 61 60 60 60 61 59 56 53 48 43 37 31 25 20
52 55 54 48 42 39 39 40 42 42 41 37 27 21 20 23 26 31 35 37 39 41 43 45 48 52 56 59 61 61 59 57 57 59 62 64 63 61 57 52 47 41 35 29
52 53 50 44 39 37 38 40 41 41 39 33 23 18 19 22 27 31 35 37 39 40 42 43 45 50 53 56 58 60 59 56 54 55 58 60 62 63 62 61 58 55 50 46
50 50 46 40 37 36 37 38 39 39 37 29 19 15 18 22 26 30 33 35 38 39 40 40 42 46 50 53 56 58 59 57 55 54 55 56 57 57 57 58 59 59 58 56
48 47 42 37 34 34 36 37 38 37 33 24 16 14 17 21 25 29 32 34 36 38 38 38 39 42 46 50 53 56 58 58 56 55 55 55 55 55 54 54 53 53 53 52
46 43 38 34 32 32 34 36 36 35 30 20 13 12 15 19 23 27 30 32 35 36 37 36 36 39 43 47 50 52 54 56 58 58 57 55 54 53 53 53 52 52 51 50

GEFSNGP_500_meanwind_018.txt.gz
Wind_Speed
33 37 41 46 51 56 60 64 67 70 72 75 76 73 66 57 50 48 50 53 54 56 58 59 61 62 62 62 62 60 59 57 56 54 53 51 49 47 46 44 42 40 38 36
33 38 42 48 54 59 63 66 68 71 73 77 76 71 63 55 50 50 52 56 58 60 62 64 64 62 60 58 57 55 54 53 52 51 49 47 46 46 45 44 42 40 39 36
37 41 45 51 57 62 65 67 70 72 74 78 76 69 61 54 52 53 56 59 62 64 65 64 61 58 55 53 52 52 52 51 51 49 47 45 43 42 42 42 41 40 38 36
40 44 49 54 59 64 67 68 71 73 76 78 75 67 57 53 53 55 59 62 64 64 61 57 53 52 52 52 53 54 55 54 53 51 48 45 42 39 38 38 39 38 37 37
41 46 51 56 62 66 69 69 72 74 77 77 72 62 55 54 55 58 61 63 63 59 54 51 51 51 52 53 55 56 57 57 55 53 49 45 41 37 35 34 35 37 37 37
43 48 54 59 64 68 70 70 73 74 76 75 70 61 56 55 57 60 62 61 57 52 49 49 50 51 53 55 57 58 58 58 56 53 50 45 41 36 33 31 30 33 36 38
45 50 56 61 66 69 68 70 72 74 75 73 65 58 57 57 59 61 60 56 51 48 47 48 50 53 55 57 59 60 60 59 57 54 50 46 42 38 33 29 27 28 32 36
48 53 58 62 66 68 68 69 71 73 74 69 61 56 57 58 60 60 56 51 47 46 47 49 52 55 57 59 60 62 62 60 57 54 50 46 42 39 35 31 27 25 26 31
48 53 58 63 66 67 68 68 70 73 72 65 58 55 57 58 59 57 52 47 45 46 48 51 54 57 59 61 62 63 62 60 57 53 50 47 43 40 37 33 28 25 23 25
50 55 60 64 67 67 67 67 70 72 69 61 56 56 57 58 57 53 48 45 45 47 49 53 55 58 60 62 63 63 62 60 58 54 51 48 46 42 38 34 30 26 23 22
50 56 61 64 66 66 65 67 70 70 65 59 55 56 57 58 55 49 45 44 45 48 51 54 56 59 61 63 64 62 61 61 60 58 54 50 46 44 40 35 31 27 23 21
51 57 62 64 65 64 65 67 68 68 62 57 55 56 57 56 51 46 43 44 46 49 52 54 56 59 62 64 63 60 60 61 62 61 59 55 49 44 40 37 32 28 25 22
52 58 62 64 64 63 63 66 67 66 60 56 55 56 56 53 48 44 43 44 47 50 52 53 56 59 62 63 61 59 60 61 63 64 63 59 54 46 39 34 32 28 24 22
53 58 62 63 63 62 63 65 66 63 58 55 55 55 54 50 45 42 43 45 47 50 51 53 56 59 62 63 61 58 58 59 61 63 65 64 59 51 42 34 28 26 23 21
53 58 61 62 61 61 62 64 64 61 57 54 54 54 52 47 43 41 42 45 47 49 50 52 55 59 62 63 60 58 58 58 59 62 65 67 65 58 48 37 29 23 20 18
53 57 60 61 60 60 61 63 63 59 55 53 53 53 50 44 41 41 43 45 46 47 48 51 54 58 61 62 60 57 57 59 61 62 63 66 67 65 56 44 33 24 19 16
53 57 59 60 59 59 61 62 61 57 54 52 52 52 47 42 40 41 44 46 46 47 48 50 53 57 60 62 61 58 57 59 61 61 62 63 66 67 63 54 42 30 22 17
53 56 59 59 58 58 60 60 59 55 52 51 51 50 45 40 38 40 42 44 45 46 47 49 51 55 59 61 60 60 60 59 59 60 60 62 64 66 66 63 55 43 32 24
53 56 58 58 57 58 59 58 56 53 50 49 49 47 42 38 37 38 40 42 43 43 44 46 49 53 56 58 60 62 61 59 58 58 59 60 61 63 64 64 63 57 48 37
54 57 58 57 56 56 57 56 54 51 48 48 48 45 40 36 36 37 40 42 43 43 42 44 47 51 54 56 59 60 61 60 58 57 57 59 60 61 61 62 62 61 59 54
55 57 57 55 55 55 55 55 52 49 47 46 46 43 38 34 34 36 38 41 42 42 41 42 45 48 52 55 57 58 59 60 59 58 58 58 59 59 59 59 59 59 58 57
55 56 55 54 53 53 53 53 50 46 45 44 44 41 36 32 32 33 36 38 40 40 40 41 43 46 50 53 54 55 57 59 60 60 60 59 59 58 57 57 56 56 55 55
54 54 53 52 51 51 52 50 47 44 43 43 42 39 34 31 30 32 34 36 38 39 40 40 41 43 47 50 52 52 54 56 58 59 61 61 61 60 59 57 56 55 54 53
53 53 51 50 50 50 49 48 45 42 40 41 41 38 33 29 28 29 31 34 36 38 39 39 40 41 43 46 48 50 51 53 55 57 59 60 61 62 61 60 59 57 56 54
51 51 49 48 48 48 47 46 43 40 39 39 39 37 32 28 26 27 29 31 33 35 37 38 39 39 40 42 44 47 49 51 52 54 55 57 58 60 60 60 60 60 59 57
49 48 47 47 46 46 45 44 40 38 37 37 37 36 31 27 25 25 26 28 30 33 35 36 37 38 38 39 41 43 45 47 50 51 53 54 55 56 57 58 59 59 59 59
47 46 45 45 45 44 43 41 38 36 35 36 36 34 31 26 23 23 24 26 28 30 31 33 35 36 37 38 38 40 42 44 46 48 50 51 52 53 54 55 56 57 57 57

GEFSNGP_500_meanwind_024.txt.gz
Wind_Speed
27 29 31 35 39 43 47 53 60 66 70 71 73 73 74 72 69 66 65 64 63 60 56 53 52 51 52 54 55 56 55 53 52 52 51 50 47 44 40 37 34 31 31 32
28 30 31 35 39 44 49 56 63 68 71 73 73 73 73 70 67 65 64 63 60 56 53 52 52 52 54 55 56 56 54 52 52 52 52 51 48 44 41 37 33 30 28 28
31 33 34 37 43 47 51 58 65 69 72 73 72 72 71 69 66 64 63 61 57 53 52 52 52 54 55 56 57 56 53 52 52 53 53 53 51 47 43 38 33 30 27 26
34 36 38 41 44 48 53 60 66 70 73 72 72 71 69 66 64 62 61 58 54 51 51 52 53 55 56 58 58 56 53 52 53 53 53 54 54 52 48 41 35 30 26 25
36 38 39 42 46 51 55 61 67 71 72 71 71 70 66 64 63 61 58 55 52 51 51 51 53 55 57 59 58 55 53 53 54 54 55 55 56 56 53 44 36 30 26 24
36 39 42 44 47 52 57 63 67 70 71 70 70 67 66 64 62 59 56 52 51 51 51 51 53 56 58 59 58 55 54 54 55 56 57 57 59 59 55 47 37 30 25 23
36 38 41 44 49 54 58 63 67 69 69 68 68 66 64 62 60 57 53 51 50 51 51 51 53 56 59 59 58 56 54 55 56 57 58 60 62 61 56 47 36 28 24 21
39 41 44 46 49 53 58 63 67 68 67 67 66 64 62 60 58 54 51 50 50 50 51 52 54 57 58 59 58 57 55 55 57 59 60 63 64 63 58 46 32 24 21 18
39 40 42 45 48 53 58 62 66 67 66 66 65 62 60 58 56 52 49 48 49 49 50 52 54 57 58 58 58 57 56 56 57 59 62 65 67 65 58 44 29 20 16 15
38 40 41 44 48 53 58 62 65 65 65 64 63 61 58 57 54 50 47 47 48 48 49 51 54 56 57 58 59 58 56 56 57 59 62 65 69 68 61 45 29 18 12 12
37 39 41 44 48 52 58 62 64 64 64 63 61 59 57 55 52 48 46 46 47 47 48 50 53 55 57 58 59 58 56 56 58 60 61 65 69 71 64 50 34 21 12 8
38 39 41 44 48 52 58 62 63 63 62 61 60 57 56 54 51 46 44 45 46 46 47 49 52 54 56 58 59 58 56 57 58 60 61 63 67 70 68 58 42 28 17 10
37 39 41 44 48 53 58 62 62 61 61 60 58 56 55 53 49 45 43 44 45 45 46 48 51 53 55 56 58 58 58 58 59 60 61 62 65 67 68 64 53 38 26 16
37 39 41 45 48 53 58 61 61 60 59 58 57 55 54 51 47 43 42 42 44 45 46 47 49 51 53 55 56 58 59 60 61 61 62 62 63 65 66 66 61 51 38 26
37 39 42 45 49 53 57 60 60 58 58 56 55 54 53 50 46 42 40 41 42 44 45 46 47 49 51 53 55 57 58 60 61 62 62 62 63 63 63 63 63 60 52 41
38 39 42 45 49 53 57 59 58 57 56 55 54 53 51 49 45 41 39 39 40 42 43 44 46 47 49 51 53 55 57 60 61 61 61 62 62 62 61 60 60 59 58 54
38 40 42 45 49 53 56 58 57 55 55 53 52 51 50 48 45 41 38 38 39 41 42 43 44 45 47 49 51 53 56 58 59 59 60 61 62 62 62 60 58 57 56 55
39 40 43 46 49 52 55 56 55 54 53 52 51 50 49 47 44 41 38 37 38 40 41 42 42 42 45 47 49 51 54 56 57 57 58 60 61 62 62 61 60 57 55 54
39 40 43 46 48 51 54 55 53 52 52 51 50 48 47 46 43 40 37 36 37 38 40 40 40 41 43 44 46 49 51 53 54 55 57 58 59 60 61 61 61 59 57 55
39 41 43 45 48 51 53 53 52 51 50 49 48 47 46 44 42 39 36 35 34 35 37 38 39 40 40 41 43 46 48 50 51 53 54 55 57 58 59 60 60 60 59 57
40 41 43 45 47 50 52 52 50 49 49 48 47 46 45 43 42 40 36 34 33 33 35 36 38 38 39 40 41 43 45 47 48 50 52 53 54 55 56 58 59 59 59 58
40 41 42 44 46 49 50 50 49 47 47 46 46 45 43 42 41 39 36 33 32 32 33 34 36 37 38 39 39 40 42 44 45 47 49 50 52 53 54 55 56 57 58 58
40 41 42 44 46 48 49 49 47 46 46 45 44 43 42 41 39 38 35 33 30 30 31 32 34 35 37 38 38 39 39 41 42 44 45 47 49 50 51 52 53 54 55 56
40 41 42 44 46 48 48 47 45 44 44 44 43 42 41 39 38 37 35 32 29 29 29 30 31 33 35 36 37 38 38 39 40 41 43 44 46 47 49 50 51 52 53 53
41 41 42 44 46 47 47 46 44 43 43 42 42 41 40 38 37 36 34 32 29 28 27 28 29 30 32 34 35 36 37 38 39 40 41 42 43 44 46 47 48 49 50 51
41 41 42 44 45 46 46 44 43 42 41 41 41 40 39 37 36 35 34 31 29 27 26 26 27 28 29 31 33 35 36 37 39 39 40 40 41 42 43 43 45 46 47 48
40 41 42 44 45 45 45 43 41 40 40 40 39 39 38 36 34 34 33 31 29 26 25 25 25 25 27 28 30 32 34 35 37 38 39 40 40 41 41 41 42 43 44 45